This is the latest recevied weather packets stored in our database for station/object K5KVN. If no packets are shown the sender has not sent any weather packets the latest 10 day(s).
| Time | Temp. | Humidity | Pressure | Rain* | Wind** | Luminosity | Snow |
|---|---|---|---|---|---|---|---|
| 1777957153 | 18.89° C | 76% | 1006.2 hPa | 0 mm | - | - | - |
| 1777956556 | 18.89° C | 76% | 1006.5 hPa | 0 mm | - | - | - |
| 1777955955 | 18.89° C | 77% | 1006.4 hPa | 0 mm | - | - | - |
| 1777955413 | 18.33° C | 78% | 1006.7 hPa | 0 mm | - | - | - |
| 1777954751 | 18.33° C | 78% | 1007.1 hPa | 0 mm | - | - | - |
| 1777954153 | 17.78° C | 80% | 1007.1 hPa | 0 mm | - | - | - |
| 1777953551 | 17.78° C | 79% | 1007.3 hPa | 0 mm | - | - | - |
| 1777952950 | 18.33° C | 78% | 1007.3 hPa | 0 mm | - | - | - |
| 1777952350 | 18.89° C | 77% | 1007.5 hPa | 0 mm | - | - | - |
| 1777951749 | 18.89° C | 77% | 1007.6 hPa | 0 mm | - | - | - |
| 1777951149 | 18.89° C | 77% | 1007.4 hPa | 0 mm | - | - | - |
| 1777950549 | 18.89° C | 77% | 1007.7 hPa | 0 mm | - | - | - |
| 1777949951 | 18.89° C | 76% | 1007.7 hPa | 0 mm | - | - | - |
| 1777949349 | 19.44° C | 76% | 1007.7 hPa | 0 mm | - | - | - |
| 1777948810 | 19.44° C | 75% | 1007.7 hPa | 0 mm | - | - | - |
| 1777948148 | 19.44° C | 74% | 1007.4 hPa | 0 mm | - | - | - |
| 1777947548 | 19.44° C | 75% | 1007.5 hPa | 0 mm | - | - | - |
| 1777946948 | 19.44° C | 74% | 1007 hPa | 0 mm | - | - | - |
| 1777946410 | 20° C | 73% | 1007 hPa | 0 mm | - | - | - |
| 1777945808 | 20° C | 72% | 1006.9 hPa | 0 mm | - | - | - |
| 1777945205 | 20° C | 71% | 1006.8 hPa | 0 mm | - | - | - |
| 1777944546 | 20.56° C | 71% | 1006.9 hPa | 0 mm | - | - | - |
| 1777943945 | 20.56° C | 70% | 1006.5 hPa | 0 mm | - | - | - |
| 1777943344 | 20.56° C | 69% | 1006.2 hPa | 0 mm | - | - | - |
| 1777942741 | 21.11° C | 69% | 1006.1 hPa | 0 mm | - | - | - |
* Rain latest hour (hover to see other rain measurements)
** Current wind speed in m/s (hover to see current wind gust speed)